Location: Newark
(25.0000°N, 73.5000°E)
Time: 04:45:42
(UTC+00:00)

Altair - Pass Details

Date: 01 March 2021
Orbit: 1501 x 1683 km, 47.2° (Epoch: 12 April)

Event Time Altitude Azimuth Distance (km) Brightness Sun altitude
Rises 17:55:26 0° 310° (NW) 4,700 10.4 -63.5°
Enters shadow 17:59:23 - 326° (NW) 3,814 9.8 -64.1°
Reaches altitude 10° 17:59:44 10° 327° (NNW) 3,747 - -64.2°
Maximum altitude 18:06:13 20° 11° (N) 3,091 - -65.3°
Drops below altitude 10° 18:12:51 10° 55° (NE) 3,847 - -66.4°
Sets 18:17:20 0° 72° (ENE) 4,865 - -67.1°
